Flag for U.S.A. Weather past 2 weeks in Daytona Beach, Florida, U.S.A.

Now
76 °F

Clear.


Feels Like: 75 °F
Forecast: 76 / 89 °F
Wind: No wind

Location: Daytona Beach Regional Airport

Current Time: Sep 1, 2014 at 4:09:05 AM

Latest Report: Sep 1, 2014 at 2:53 AM


Visibility: 9 mi

Pressure: 30.10 "Hg

Humidity: 94%

Dew point: 74 °F

Location of Daytona BeachLocation

Historic Weather in Daytona Beach — Graph

°F

Daytona Beach temperature yesterday

Maximum temperature yesterday: 90 °F (at 2:53 PM)
Minimum temperature yesterday: 74 °F (at 5:53 AM)
Average temperature yesterday: 82 °F

Past Weeks' High & Low Weather Summary

 TemperatureHumidityPressure
High96 °F (Aug 23, 1:53 PM)100% (Aug 17, 2:53 AM)30.16 "Hg (Aug 17, 2:53 AM)
Low71 °F (Aug 28, 3:53 AM)44% (Aug 20, 3:53 PM)29.80 "Hg (Aug 24, 5:53 PM)
Average82 °F78%30.01 "Hg
* Reported Aug 17 2:53 AM — Sep 1 2:53 AM, Daytona Beach, Weather by CustomWeather, © 2014

Note: Actual official high and low records may vary slightly from our data, if they occured in-between our weather recording intervals... More about our weather records

Advertising

Daytona Beach weather history for previous 24 hours

 ConditionsComfort  
Time TempWeatherWind HumidityBarometerVisibility
2:53 AM
Sep 1
76 °FClear.No wind94%30.10 "Hg9 mi
1:53 AM78 °FClear.No wind87%30.12 "Hg10 mi
12:53 AM77 °FClear.No wind94%30.13 "Hg10 mi
11:53 PM
Aug 31
78 °FClear.No wind87%30.14 "Hg10 mi
10:53 PM79 °FClear.No wind88%30.13 "Hg10 mi
9:53 PM80 °FClear.No wind85%30.12 "Hg10 mi
8:53 PM81 °FPassing clouds.No wind79%30.11 "Hg10 mi
7:53 PM83 °FScattered clouds.3 mph72%30.09 "Hg10 mi
6:53 PM86 °FPassing clouds.8 mph65%30.08 "Hg10 mi
5:53 PM88 °FPassing clouds.7 mph59%30.08 "Hg10 mi
4:53 PM88 °FPassing clouds.7 mph57%30.09 "Hg10 mi
3:53 PM89 °FPassing clouds.12 mph55%30.10 "Hg10 mi
2:53 PM90 °FPassing clouds.10 mph57%30.11 "Hg10 mi
1:53 PM89 °FPassing clouds.10 mph61%30.14 "Hg10 mi
12:53 PM89 °FPassing clouds.9 mph59%30.15 "Hg10 mi
11:53 AM89 °FPassing clouds.8 mph63%30.15 "Hg10 mi
10:53 AM87 °FScattered clouds.5 mph63%30.16 "Hg10 mi
9:53 AM85 °FPassing clouds.3 mph68%30.16 "Hg10 mi
8:53 AM83 °FPassing clouds.3 mph79%30.15 "Hg10 mi
7:53 AM79 °FPassing clouds.No wind90%30.14 "Hg10 mi
6:53 AM75 °FPassing clouds.3 mph96%30.14 "Hg10 mi
5:53 AM74 °FClear.No wind100%30.12 "Hg9 mi
4:53 AM76 °FPassing clouds.No wind94%30.12 "Hg10 mi
Weather by CustomWeather, © 2014

See weather overviewHow to use our weather pages